QPF
0.00 0.00 0.00 0.00 0.00 0.00 0.00 0.01 0.01 0.00 0.00 0.00 0.00 0.00 0.00 0.00 0.00 0.00 0.00 0.00 0.00 0.00 0.00 0.00 0.00 0.00 0.00 0.00 0.00 0.00 0.00 0.00 0.00 0.00 0.00 0.00 0.00 0.00
0.00 0.00 0.00 0.00 0.00 0.00 0.00 0.00 0.00 0.00 0.00 0.00 0.00 0.00 0.00 0.00 0.00 0.00 0.00 0.00 0.00 0.00 0.00 0.00 0.00 0.00 0.00 0.00 0.00 0.00 0.00 0.00 0.00 0.00 0.00 0.00 0.00 0.00
0.00 0.00 0.00 0.00 0.00 0.00 0.00 0.00 0.00 0.00 0.00 0.00 0.00 0.00 0.00 0.00 0.00 0.00 0.00 0.00 0.00 0.00 0.00 0.00 0.00 0.00 0.00 0.00 0.00 0.00 0.00 0.00 0.00 0.00 0.00 0.00 0.00 0.00
0.00 0.00 0.00 0.00 0.00 0.00 0.00 0.00 0.00 0.00 0.00 0.00 0.00 0.00 0.00 0.00 0.00 0.00 0.00 0.00 0.00 0.00 0.00 0.00 0.00 0.00 0.00 0.00 0.00 0.00 0.00 0.00 0.00 0.00 0.00 0.00 0.00 0.00
0.00 0.00 0.00 0.00 0.00 0.00 0.00 0.00 0.00 0.00 0.00 0.00 0.00 0.00 0.00 0.00 0.00 0.00 0.00 0.00 0.00 0.00 0.00 0.00 0.00 0.00 0.00 0.00 0.00 0.00 0.00 0.00 0.00 0.00 0.00 0.00 0.00 0.00
0.00 0.00 0.00 0.00 0.00 0.00 0.00 0.00 0.00 0.00 0.00 0.00 0.00 0.00 0.00 0.00 0.00 0.00 0.00 0.00 0.00 0.00 0.00 0.00 0.00 0.00 0.00 0.00 0.00 0.00 0.00 0.00 0.00 0.00 0.00 0.00 0.00 0.00
0.00 0.00 0.00 0.00 0.00 0.00 0.00 0.00 0.00 0.00 0.00 0.00 0.00 0.00 0.00 0.00 0.00 0.00 0.00 0.00 0.00 0.00 0.00 0.00 0.00 0.00 0.00 0.00 0.00 0.00 0.00 0.00 0.00 0.00 0.00 0.00 0.00 0.00
0.00 0.00 0.00 0.00 0.00 0.00 0.00 0.00 0.00 0.00 0.00 0.00 0.00 0.00 0.00 0.00 0.00 0.00 0.00 0.00 0.00 0.00 0.00 0.00 0.00 0.00 0.00 0.00 0.00 0.00 0.00 0.00 0.00 0.00 0.00 0.00 0.00 0.00
0.00 0.00 0.00 0.00 0.00 0.00 0.00 0.00 0.00 0.00 0.00 0.01 0.01 0.02 0.01 0.01 0.01 0.01 0.00 0.00 0.00 0.00 0.00 0.00 0.00 0.00 0.00 0.00 0.00 0.00 0.00 0.00 0.00 0.00 0.00 0.00 0.00 0.00
0.00 0.00 0.00 0.00 0.00 0.00 0.00 0.00 0.00 0.00 0.00 0.01 0.03 0.02 0.01 0.01 0.01 0.00 0.00 0.00 0.00 0.00 0.00 0.00 0.00 0.00 0.00 0.00 0.00 0.00 0.00 0.00 0.00 0.00 0.00 0.00 0.00 0.00
0.00 0.00 0.00 0.00 0.00 0.01 0.01 0.01 0.00 0.00 0.00 0.00 0.00 0.00 0.00 0.00 0.00 0.00 0.00 0.00 0.00 0.00 0.00 0.00 0.00 0.00 0.00 0.00 0.00 0.00 0.00 0.00 0.00 0.00 0.00 0.00 0.00 0.00
0.00 0.00 0.00 0.00 0.00 0.00 0.01 0.01 0.01 0.00 0.00 0.00 0.00 0.00 0.00 0.00 0.00 0.00 0.00 0.00 0.00 0.00 0.00 0.00 0.00 0.00 0.00 0.00 0.00 0.00 0.00 0.00 0.00 0.00 0.00 0.00 0.00 0.00
0.00 0.00 0.00 0.00 0.00 0.00 0.00 0.00 0.00 0.00 0.00 0.00 0.00 0.00 0.00 0.00 0.00 0.00 0.00 0.00 0.00 0.00 0.00 0.00 0.00 0.00 0.00 0.00 0.00 0.00 0.00 0.00 0.00 0.00 0.00 0.00 0.00 0.00
0.01 0.00 0.00 0.00 0.00 0.00 0.00 0.00 0.00 0.00 0.00 0.00 0.00 0.00 0.00 0.00 0.00 0.00 0.00 0.00 0.00 0.00 0.00 0.00 0.00 0.00 0.00 0.00 0.00 0.00 0.00 0.00 0.00 0.00 0.00 0.00 0.00 0.00
0.00 0.00 0.00 0.00 0.00 0.00 0.00 0.00 0.00 0.00 0.00 0.00 0.00 0.00 0.00 0.00 0.00 0.00 0.00 0.00 0.00 0.00 0.00 0.00 0.00 0.00 0.00 0.00 0.00 0.00 0.00 0.00 0.00 0.00 0.00 0.00 0.00 0.00
0.00 0.00 0.00 0.00 0.00 0.00 0.00 0.00 0.00 0.00 0.00 0.00 0.00 0.00 0.00 0.00 0.00 0.00 0.00 0.00 0.00 0.00 0.00 0.00 0.00 0.00 0.00 0.00 0.00 0.00 0.00 0.00 0.00 0.00 0.00 0.00 0.00 0.00
0.00 0.00 0.00 0.00 0.00 0.00 0.00 0.00 0.00 0.00 0.00 0.00 0.00 0.00 0.00 0.00 0.00 0.00 0.00 0.00 0.00 0.00 0.00 0.00 0.00 0.00 0.00 0.00 0.00 0.00 0.00 0.00 0.00 0.00 0.00 0.00 0.00 0.00
0.00 0.00 0.00 0.00 0.00 0.00 0.00 0.00 0.00 0.00 0.00 0.00 0.00 0.00 0.00 0.00 0.00 0.00 0.00 0.00 0.00 0.00 0.00 0.00 0.00 0.00 0.00 0.00 0.00 0.00 0.00 0.00 0.00 0.00 0.00 0.00 0.00 0.00
0.00 0.00 0.00 0.00 0.00 0.00 0.00 0.00 0.00 0.00 0.00 0.00 0.00 0.00 0.00 0.00 0.00 0.00 0.00 0.00 0.00 0.00 0.00 0.00 0.00 0.00 0.00 0.00 0.00 0.00 0.00 0.00 0.00 0.00 0.00 0.00 0.00 0.00
0.00 0.00 0.00 0.00 0.00 0.00 0.00 0.00 0.00 0.00 0.00 0.00 0.00 0.00 0.00 0.00 0.00 0.00 0.00 0.00 0.00 0.00 0.00 0.00 0.00 0.00 0.00 0.00 0.00 0.00 0.00 0.00 0.00 0.00 0.00 0.00 0.00 0.00
0.00 0.00 0.00 0.00 0.00 0.00 0.00 0.00 0.00 0.00 0.00 0.00 0.00 0.00 0.00 0.00 0.00 0.00 0.00 0.00 0.00 0.00 0.00 0.00 0.00 0.00 0.00 0.00 0.00 0.00 0.00 0.00 0.00 0.00 0.00 0.00 0.00 0.00
0.00 0.00 0.00 0.00 0.00 0.00 0.00 0.00 0.00 0.00 0.00 0.00 0.00 0.00 0.00 0.00 0.00 0.00 0.00 0.00 0.00 0.00 0.00 0.00 0.00 0.00 0.00 0.00 0.00 0.00 0.00 0.00 0.00 0.00 0.00 0.00 0.00 0.00
0.00 0.00 0.00 0.00 0.00 0.00 0.00 0.00 0.00 0.00 0.00 0.00 0.00 0.00 0.00 0.00 0.00 0.00 0.00 0.00 0.00 0.00 0.00 0.00 0.00 0.00 0.00 0.00 0.00 0.00 0.00 0.00 0.00 0.00 0.00 0.00 0.00 0.00
MSLP
1016.55 1016.88 1017.28 1017.19 1017.27 1018.28 1019.15 1019.41 1019.63 1019.80 1019.32 1018.62 1018.63 1017.86 1017.87 1018.11 1017.99 1018.12 1018.12 1018.08 1018.00 1018.10 1018.21 1018.33 1018.28 1018.49 1018.58 1018.60 1018.69 1018.93 1019.23 1019.44 1019.77 1020.23 1020.54 1020.96 1021.51 1022.04
1015.87 1016.27 1016.45 1016.54 1016.69 1017.17 1017.98 1018.25 1018.62 1018.73 1018.11 1017.62 1017.43 1017.22 1017.04 1017.06 1016.91 1016.86 1016.78 1016.75 1016.87 1016.95 1017.03 1017.16 1017.41 1017.46 1017.56 1017.63 1017.54 1017.53 1017.99 1018.67 1018.98 1019.55 1020.11 1020.53 1021.17 1021.71
1015.12 1015.45 1015.55 1015.68 1015.85 1016.53 1016.84 1017.10 1017.25 1017.40 1017.16 1016.37 1016.26 1016.16 1016.35 1016.30 1016.14 1015.87 1015.84 1015.88 1015.74 1015.77 1015.78 1015.94 1016.18 1016.37 1016.48 1016.60 1016.80 1017.02 1017.58 1018.18 1018.75 1019.39 1020.11 1020.70 1021.11 1021.38
1014.11 1014.53 1014.48 1014.86 1015.15 1015.38 1015.74 1015.93 1015.96 1015.89 1016.08 1015.64 1015.37 1015.49 1015.40 1015.02 1014.96 1015.03 1014.83 1014.64 1014.67 1014.54 1014.48 1014.72 1015.08 1015.21 1015.47 1015.62 1015.83 1016.23 1016.72 1017.41 1018.16 1019.03 1019.67 1020.04 1020.55 1020.81
1013.26 1013.44 1013.40 1014.04 1014.15 1014.34 1014.60 1014.81 1014.78 1014.75 1014.82 1014.75 1014.34 1014.07 1013.98 1014.13 1014.14 1014.10 1013.89 1013.93 1013.64 1013.55 1013.67 1013.77 1014.02 1014.47 1014.70 1015.06 1015.63 1016.16 1016.60 1017.29 1018.09 1018.78 1019.20 1019.65 1020.00 1020.58
1012.07 1012.18 1012.28 1012.73 1012.70 1013.04 1013.42 1013.54 1013.51 1013.63 1013.61 1013.65 1013.36 1013.08 1013.08 1012.93 1012.95 1012.78 1012.69 1012.79 1012.39 1012.50 1012.77 1013.04 1013.47 1013.94 1014.55 1014.97 1015.54 1015.93 1016.59 1017.22 1017.71 1018.48 1019.16 1019.53 1019.73 1020.20
1010.92 1011.01 1011.00 1011.19 1011.32 1011.54 1012.01 1012.02 1012.31 1012.51 1012.66 1012.42 1012.05 1011.76 1011.60 1012.10 1012.04 1011.59 1011.74 1011.57 1011.55 1012.08 1012.46 1012.74 1013.10 1013.43 1014.04 1014.50 1015.17 1015.94 1016.57 1017.22 1017.89 1017.94 1018.49 1018.76 1019.43 1019.98
1009.47 1009.50 1009.65 1010.00 1010.02 1010.09 1010.41 1010.46 1010.85 1011.13 1011.18 1011.16 1010.64 1010.30 1010.01 1010.14 1010.18 1010.32 1010.42 1011.25 1012.18 1012.20 1012.30 1013.06 1013.48 1013.60 1014.08 1014.52 1014.84 1015.71 1016.41 1017.07 1017.26 1017.69 1018.01 1018.37 1018.74 1018.98
1007.89 1008.14 1008.38 1008.51 1008.69 1008.97 1009.10 1009.47 1009.56 1009.82 1009.92 1009.88 1009.38 1008.99 1008.92 1008.96 1009.01 1009.24 1009.99 1010.94 1011.06 1011.87 1012.32 1013.28 1013.75 1014.03 1014.37 1014.74 1015.28 1015.84 1016.09 1016.49 1016.92 1017.16 1017.32 1017.75 1017.89 1018.08
1006.74 1006.88 1006.98 1007.01 1007.15 1007.53 1007.85 1008.24 1009.28 1009.92 1010.00 1010.01 1009.69 1009.32 1009.46 1009.18 1008.87 1009.42 1009.70 1011.71 1011.63 1012.44 1012.50 1013.68 1013.58 1014.24 1014.57 1014.80 1015.30 1015.72 1016.03 1015.99 1016.36 1016.73 1016.99 1017.25 1017.40 1017.41
1005.71 1006.33 1006.43 1006.20 1006.00 1006.27 1006.81 1007.92 1009.49 1010.41 1010.58 1010.60 1010.88 1010.77 1010.25 1010.00 1009.90 1009.72 1010.39 1011.05 1012.25 1013.44 1012.93 1013.52 1014.19 1014.37 1015.02 1015.08 1015.28 1015.41 1015.93 1016.00 1016.26 1016.51 1016.78 1016.76 1016.82 1016.90
1006.80 1007.30 1007.26 1007.21 1007.02 1006.49 1006.58 1007.51 1009.29 1010.44 1010.88 1010.98 1010.93 1010.77 1011.16 1011.51 1011.34 1011.48 1011.29 1012.22 1012.55 1013.87 1014.29 1013.91 1015.00 1015.18 1015.68 1015.63 1015.87 1016.13 1016.23 1016.37 1016.49 1016.53 1016.79 1016.80 1016.60 1016.52
1008.29 1008.78 1008.67 1008.10 1007.63 1007.80 1008.55 1009.25 1010.17 1010.97 1011.24 1011.35 1011.54 1012.48 1012.52 1011.99 1012.83 1012.56 1013.53 1013.11 1013.84 1014.43 1014.29 1013.87 1014.95 1015.41 1016.05 1016.30 1016.35 1016.46 1016.68 1016.50 1016.64 1016.65 1016.47 1016.43 1016.30 1016.17
1008.78 1009.66 1010.23 1010.32 1009.74 1009.34 1009.74 1010.20 1011.15 1012.12 1012.35 1012.73 1012.71 1013.24 1013.28 1014.13 1014.33 1014.78 1014.99 1014.54 1014.90 1015.14 1015.00 1015.28 1015.94 1016.22 1016.30 1016.70 1016.86 1016.65 1016.63 1016.60 1016.40 1016.28 1016.12 1016.04 1015.97 1015.85
1011.24 1011.01 1009.74 1010.00 1012.28 1011.86 1011.43 1012.15 1012.86 1013.07 1013.47 1013.32 1013.91 1013.95 1015.37 1014.63 1014.97 1015.41 1015.74 1015.79 1015.59 1015.70 1015.83 1016.11 1016.41 1016.38 1016.53 1016.65 1016.71 1016.89 1016.79 1016.57 1016.43 1016.18 1015.87 1015.76 1015.81 1015.74
1011.94 1012.16 1012.02 1013.10 1011.03 1012.77 1014.45 1013.03 1014.13 1014.84 1015.44 1016.25 1015.67 1015.84 1015.42 1015.77 1016.20 1016.27 1016.44 1016.72 1016.39 1016.42 1016.65 1016.66 1016.40 1016.61 1016.76 1016.85 1016.79 1016.80 1016.83 1016.96 1016.25 1016.09 1015.86 1015.42 1015.11 1015.35
1013.00 1013.93 1013.24 1014.47 1014.85 1014.83 1015.03 1015.23 1015.41 1015.67 1016.13 1017.17 1017.54 1017.14 1017.56 1017.55 1017.22 1017.25 1017.11 1017.57 1017.51 1017.54 1017.62 1017.43 1017.28 1017.27 1016.59 1016.61 1016.73 1017.08 1016.96 1016.82 1016.65 1016.32 1015.97 1015.34 1015.03 1014.84
1014.25 1015.87 1016.04 1015.96 1017.47 1017.01 1016.83 1017.42 1017.70 1017.84 1018.12 1018.61 1018.49 1018.90 1018.19 1018.56 1018.84 1018.71 1018.90 1018.75 1018.56 1018.74 1018.60 1018.82 1018.48 1017.47 1016.63 1016.68 1016.91 1017.44 1017.48 1017.16 1016.76 1016.33 1015.67 1015.27 1014.68 1014.36
1017.02 1017.93 1018.01 1017.99 1018.41 1018.48 1018.74 1018.59 1019.39 1019.51 1019.53 1019.70 1020.37 1020.13 1019.89 1019.83 1020.26 1020.31 1020.31 1019.78 1019.28 1019.75 1019.50 1019.21 1019.08 1018.45 1017.74 1018.10 1017.99 1017.68 1017.31 1016.95 1016.24 1015.81 1015.51 1015.13 1014.30 1013.89
1019.34 1019.80 1019.87 1019.73 1020.32 1020.08 1020.61 1020.27 1020.28 1021.26 1021.07 1021.22 1022.01 1021.90 1021.50 1021.18 1021.42 1021.82 1021.11 1020.68 1020.16 1020.23 1019.47 1019.82 1019.51 1019.83 1019.00 1018.92 1018.51 1017.78 1017.14 1016.63 1016.20 1015.64 1015.15 1014.51 1013.82 1013.08
1021.37 1021.40 1021.48 1021.62 1021.91 1022.47 1022.19 1021.92 1022.23 1022.29 1022.75 1022.48 1022.72 1023.12 1022.88 1022.42 1022.57 1022.55 1022.08 1021.28 1020.94 1020.71 1020.35 1020.32 1019.74 1020.22 1018.87 1018.50 1018.51 1017.82 1017.22 1017.00 1016.23 1015.22 1014.53 1013.99 1013.05 1012.19
1023.02 1023.10 1023.39 1023.42 1023.45 1023.64 1023.69 1023.27 1023.40 1023.35 1023.07 1023.50 1023.71 1023.74 1024.02 1023.70 1023.46 1023.40 1022.86 1022.09 1021.44 1021.38 1020.88 1020.83 1020.65 1019.78 1018.88 1018.70 1018.55 1018.02 1016.94 1016.39 1015.66 1014.79 1013.87 1013.24 1012.54 1011.07
1024.54 1024.76 1024.85 1024.80 1024.85 1024.75 1024.41 1024.42 1024.43 1024.35 1024.29 1024.36 1024.50 1024.77 1024.63 1024.75 1024.32 1023.81 1023.42 1022.64 1022.21 1021.75 1021.44 1021.52 1021.04 1019.89 1019.12 1019.29 1018.54 1017.76 1016.77 1015.62 1014.93 1014.28 1012.80 1011.71 1011.70 1010.49
Thickness
5577 5575 5573 5576 5576 5569 5562 5562 5561 5562 5566 5573 5572 5578 5576 5572 5575 5572 5571 5572 5572 5571 5569 5567 5564 5559 5556 5552 5547 5543 5538 5534 5530 5523 5518 5512 5505 5498
5576 5573 5573 5574 5574 5571 5566 5564 5561 5560 5566 5573 5574 5576 5575 5572 5573 5573 5572 5571 5570 5569 5566 5562 5557 5554 5551 5547 5545 5542 5536 5527 5522 5515 5507 5501 5493 5487
5578 5575 5575 5575 5574 5569 5568 5566 5564 5562 5561 5574 5574 5574 5571 5570 5571 5571 5570 5568 5567 5566 5565 5561 5556 5552 5548 5543 5539 5534 5526 5519 5512 5503 5493 5485 5479 5474
5578 5575 5578 5573 5571 5571 5568 5567 5565 5566 5562 5564 5570 5570 5569 5572 5570 5568 5568 5567 5564 5564 5563 5558 5553 5548 5543 5538 5533 5528 5521 5513 5504 5495 5485 5480 5473 5467
5579 5578 5579 5572 5572 5571 5569 5567 5566 5565 5563 5561 5565 5568 5569 5565 5564 5563 5565 5563 5561 5558 5555 5553 5549 5542 5536 5530 5522 5514 5508 5502 5493 5484 5477 5470 5464 5455
5579 5578 5578 5574 5576 5572 5569 5568 5569 5564 5563 5559 5561 5565 5565 5564 5563 5567 5565 5558 5560 5554 5550 5546 5540 5533 5525 5518 5510 5504 5496 5488 5481 5472 5463 5457 5451 5443
5581 5580 5581 5578 5576 5575 5570 5571 5566 5561 5558 5560 5563 5565 5566 5559 5557 5563 5557 5558 5553 5545 5538 5534 5528 5522 5513 5506 5497 5489 5481 5472 5463 5459 5451 5444 5434 5425
5585 5584 5582 5576 5576 5574 5569 5568 5566 5562 5563 5563 5566 5565 5568 5565 5561 5559 5556 5537 5535 5529 5525 5515 5510 5505 5498 5490 5484 5475 5465 5455 5449 5442 5435 5428 5420 5413
5588 5585 5581 5580 5577 5575 5571 5564 5562 5557 5555 5560 5564 5566 5563 5563 5559 5548 5538 5528 5525 5515 5508 5497 5490 5484 5477 5471 5463 5452 5448 5443 5434 5427 5420 5412 5407 5399
5585 5582 5581 5581 5580 5575 5570 5564 5550 5542 5540 5537 5537 5539 5536 5537 5537 5530 5523 5500 5500 5491 5485 5477 5474 5463 5456 5451 5442 5434 5427 5424 5417 5410 5402 5395 5388 5384
5579 5570 5568 5571 5572 5568 5563 5547 5531 5522 5520 5518 5515 5513 5514 5513 5511 5509 5500 5494 5477 5462 5467 5459 5449 5444 5434 5429 5423 5417 5409 5403 5396 5389 5382 5378 5373 5368
5552 5545 5544 5543 5544 5548 5545 5534 5518 5507 5501 5499 5497 5496 5490 5484 5481 5477 5476 5465 5457 5441 5437 5436 5422 5416 5409 5404 5398 5391 5387 5381 5375 5370 5363 5357 5353 5351
5523 5518 5517 5521 5524 5521 5513 5504 5494 5485 5481 5477 5471 5459 5455 5457 5445 5445 5434 5436 5428 5417 5414 5416 5403 5395 5386 5379 5373 5367 5361 5357 5353 5348 5344 5338 5333 5329
5502 5493 5487 5486 5491 5490 5485 5479 5469 5457 5451 5444 5440 5432 5428 5418 5416 5409 5404 5405 5397 5392 5387 5381 5374 5368 5363 5354 5348 5344 5340 5336 5334 5330 5325 5320 5313 5307
5463 5462 5473 5469 5447 5449 5451 5444 5436 5431 5420 5413 5408 5404 5389 5395 5390 5385 5377 5373 5373 5367 5361 5353 5348 5343 5338 5333 5329 5322 5318 5312 5307 5306 5304 5300 5291 5280
5435 5428 5425 5422 5436 5421 5398 5412 5404 5394 5386 5374 5377 5371 5372 5366 5357 5355 5351 5345 5343 5338 5330 5326 5325 5319 5312 5308 5305 5302 5294 5288 5289 5282 5278 5275 5268 5258
5410 5400 5403 5392 5383 5382 5377 5368 5364 5362 5355 5343 5337 5338 5329 5329 5330 5327 5324 5314 5311 5307 5301 5299 5296 5291 5293 5288 5280 5273 5269 5263 5258 5256 5253 5252 5246 5236
5380 5364 5359 5359 5341 5342 5343 5335 5330 5324 5318 5311 5311 5305 5307 5303 5297 5295 5289 5286 5283 5277 5272 5264 5261 5266 5268 5260 5250 5242 5235 5232 5229 5227 5226 5225 5227 5213
5338 5329 5326 5323 5318 5313 5307 5306 5296 5292 5289 5286 5278 5277 5275 5274 5266 5262 5257 5257 5256 5245 5240 5238 5233 5233 5229 5215 5214 5202 5205 5202 5204 5201 5197 5193 5195 5191
5303 5296 5293 5292 5285 5284 5277 5277 5275 5263 5261 5258 5247 5243 5243 5242 5235 5227 5229 5223 5222 5216 5215 5206 5202 5194 5191 5182 5185 5183 5170 5169 5167 5167 5166 5165 5165 5165
5271 5267 5264 5260 5255 5247 5247 5246 5239 5235 5228 5226 5221 5214 5211 5210 5204 5199 5195 5194 5190 5188 5182 5175 5173 5162 5165 5162 5153 5152 5147 5136 5134 5137 5136 5135 5139 5142
5242 5238 5232 5228 5225 5219 5213 5213 5210 5208 5207 5199 5191 5187 5178 5176 5174 5168 5164 5162 5163 5155 5152 5143 5136 5136 5135 5130 5125 5118 5118 5112 5107 5106 5106 5110 5114 5120
5210 5205 5200 5197 5194 5191 5190 5186 5182 5179 5176 5171 5166 5159 5151 5146 5143 5139 5134 5133 5130 5125 5120 5110 5107 5107 5104 5096 5093 5091 5091 5094 5090 5085 5086 5094 5091 5099